SCOUT A DEB, 3213

Orbit data source: Space-Track

SCOUT A DEB, 3213 is space debris in LEO originally from a launch on Sat, 02 Mar 1968 UTC launched from the Air Force Western Test Range (AFWTR). Debris objects in space refer to the collection of defunct objects orbiting the Earth. Examples of debris include non-operational satellites, rocket bodies, and fragments generated from explosions, collisions, or faulty payload assembly.

Loading next visibility...
Identifier
3213, 1968-012C
Orbit
LEO
Country
Flag of USUS
Related business
Manufacturer
Unknown
Mission
Spacecraft
Bus & Motor
Unknown
Mass
Unknown
Launch date (UTC)
1968-03-02 (58 years ago)
Launch vehicle
Unknown
Launch site
Air Force Western Test Range (AFWTR)
Object type
Payload
Rocket body
Debris
Shape & HBR
Unknown
Radar Cross Section
Small (<0.1 m²)

Expand to show TLE details & history
Last TLE update: 1 day ago

TLE from 1 day ago
0 SCOUT A DEB
1 03213U 68012C   25260.54036417  .00000367  00000-0  29077-3 0  9995
2 03213  90.2151 107.2808 0053170 107.9801 311.4074 13.89045007572592
Epoch: 2025-09-17T12:58Z
TLE epoch observation values (Epoch: 2025-09-17T12:58:07.464Z)
Latitude
59.02103°
Longitude
-84.32156°
Altitude
916.473 km
Speed
7.412 km/s
True Right ascension
07h 07m 41s
True Declination
58° 52' 20"
Sunlit
Object was in daylight at epoch
Visualization orbit readout
Latitude
Unknown
Longitude
Unknown
Altitude
Unknown
Speed
Unknown
Apparent Right ascension
Unknown
Apparent Declination
Unknown
Sunlit
N/A
Visualization observer readout
Local Sidereal Time
09:04:10
Azimuth
Unknown
Elevation
Unknown
Doppler factor
Unknown
Orbital elements
Apogee altitude
967.824 km
Perigee altitude
890.121 km
Semi-major axis
7,307.11 km
Eccentricity
0.00532
Inclination
90.2151°
RAAN
107.2808°
Arg. of periapsis
107.9801°
True anomaly
310.94841°
Mean anomaly
311.4074°
Eccentric anomaly
311.17811°
Mean motion
3.47476 °/min
Orbital period
103.6 mins
BSTAR
0.00029077
Loading maneuver chart data...
Computing Atmospheric mass density...
Loading historical data...
Loading historical data...
Loading historical data...
Loading historical data...
Loading historical data...
Loading historical data...
Loading historical data...

Documentation

Showing up to 5 results
|